Weather History for Easton, MD

Change the Weather History Date:

Friday, November 30, 2012

  Actual Average Record
Temperature  
Mean Temperature 40 °F -  
Max Temperature 53 °F 49 °F 69 °F (2006)
Min Temperature 26 °F 33 °F 17 °F (1976)
Degree Days  
Heating Degree Days 26    
Moisture  
Dew Point 34 °F    
Average Humidity 92    
Maximum Humidity 100    
Minimum Humidity 54    
Precipitation  
Precipitation 0.00 in - - ()
Sea Level Pressure  
Sea Level Pressure 30.38 in    
Wind  
Wind Speed 2 mph (South)    
Max Wind Speed 6 mph    
Max Gust Speed -    
Visibility 7 miles    
Events      
Averages and records for this station are not official NWS values.
T = Trace of Precipitation, MM = Missing Value Source: NWS Daily Summary

Daily Weather History Graph

Daily Weather History Graph

Search for Another Location

Airport:

Trip Planner

Search our weather history database for the weather conditions in past years. The results will help you decide how hot, cold, wet, or windy it might be!

Date:

Astronomy

Nov. 30, 2012 Rise Set
Actual Time 7:03 AM EST 4:43 PM EST
Civil Twilight 6:33 AM EST 5:12 PM EST
Nautical Twilight 6:00 AM EST 5:45 PM EST
Astronomical Twilight 5:28 AM EST 6:17 PM EST
Moon 6:35 PM EST (11/30) 8:33 AM EST (11/30)
Length of Visible Light 10h 38m
Length of Day
9h 39m
Waning Gibbous, 96% of the Moon is Illuminated
Nov 30
Waning Gibbous
Dec 6
Last Quarter
Dec 13
New
Dec 20
First Quarter
Dec 28
Full

Hourly Weather History & Observations

Time (EST) Temp. Windchill Dew Point Humidity Pressure Visibility Wind Dir Wind Speed Gust Speed Precip Events Conditions
12:18 AM 33.6 °F 30.6 °F 33.6 °F 100% 30.39 in 7.0 mi South 3.5 mph - N/A   Clear
12:39 AM 34.2 °F - 34.2 °F 100% 30.39 in 7.0 mi Calm Calm - N/A   Clear
1:00 AM 33.1 °F 30.0 °F 33.1 °F 100% 30.38 in 5.0 mi South 3.5 mph - N/A   Clear
1:22 AM 32.9 °F - 32.9 °F 100% 30.38 in 5.0 mi Calm Calm - N/A   Clear
1:43 AM 32.0 °F 28.7 °F 32.0 °F 100% 30.38 in 3.0 mi South 3.5 mph - N/A   Clear
2:04 AM 31.1 °F 26.4 °F 31.1 °F 100% 30.38 in 2.5 mi South 4.6 mph - N/A   Clear
2:26 AM 32.0 °F 28.7 °F 32.0 °F 100% 30.39 in 3.0 mi South 3.5 mph - N/A   Clear
2:47 AM 30.6 °F 27.1 °F 30.6 °F 100% 30.39 in 3.0 mi South 3.5 mph - N/A   Clear
3:08 AM 30.4 °F 26.9 °F 30.4 °F 100% 30.38 in 2.5 mi South 3.5 mph - N/A   Clear
3:30 AM 32.4 °F 29.1 °F 32.4 °F 100% 30.38 in 5.0 mi SSW 3.5 mph - N/A   Clear
3:51 AM 32.9 °F 29.8 °F 32.9 °F 100% 30.37 in 5.0 mi SSW 3.5 mph - N/A   Clear
4:12 AM 32.2 °F 28.9 °F 32.2 °F 100% 30.37 in 5.0 mi SSW 3.5 mph - N/A   Clear
4:33 AM 31.8 °F - 31.8 °F 100% 30.37 in 5.0 mi Calm Calm - N/A   Clear
4:55 AM 32.9 °F - 32.9 °F 100% 30.37 in 7.0 mi Calm Calm - N/A   Clear
5:16 AM 32.0 °F 28.7 °F 32.0 °F 100% 30.37 in 7.0 mi South 3.5 mph - N/A   Clear
5:37 AM 32.0 °F 27.5 °F 32.0 °F 100% 30.38 in 7.0 mi South 4.6 mph - N/A   Clear
5:53 AM 32.0 °F 28.7 °F 32.0 °F 100% 30.38 in 7.0 mi South 3.5 mph - N/A   Clear
5:59 AM 32.0 °F 28.7 °F 32.0 °F 100% 30.38 in 7.0 mi South 3.5 mph - N/A   Clear
6:20 AM 29.7 °F - 29.7 °F 100% 30.38 in 7.0 mi Calm Calm - N/A   Clear
6:39 AM 28.6 °F - 28.6 °F 100% 30.39 in 7.0 mi Calm Calm - N/A   Clear
6:53 AM 26.6 °F - 26.6 °F 100% 30.39 in 5.0 mi Calm Calm - N/A   Scattered Clouds
7:53 AM 32.0 °F - 32.0 °F 100% 30.41 in 5.0 mi Calm Calm - N/A   Scattered Clouds
8:53 AM 44.6 °F - 39.2 °F 81% 30.41 in 7.0 mi Calm Calm - N/A   Scattered Clouds
9:53 AM 48.2 °F - 39.2 °F 71% 30.41 in 10.0 mi Calm Calm - N/A   Scattered Clouds
10:55 AM 53.6 °F - 37.4 °F 54% 30.41 in 10.0 mi Calm Calm - N/A   Scattered Clouds
11:58 AM 53.6 °F - 37.4 °F 54% 30.37 in 10.0 mi Calm Calm - N/A   Scattered Clouds
12:59 PM 53.6 °F - 37.4 °F 54% 30.36 in 10.0 mi Calm Calm - N/A   Scattered Clouds
1:57 PM 53.6 °F - 39.2 °F 58% 30.35 in 10.0 mi East 3.5 mph - N/A   Overcast
2:55 PM 53.6 °F - 39.2 °F 58% 30.35 in 10.0 mi Calm Calm - N/A   Mostly Cloudy
3:55 PM 50.0 °F - 39.2 °F 66% 30.36 in 10.0 mi Calm Calm - N/A   Mostly Cloudy
4:47 PM 44.6 °F - 41.0 °F 87% 30.36 in 10.0 mi Calm Calm - N/A   Mostly Cloudy
5:54 PM 41.0 °F - 39.2 °F 93% 30.37 in 10.0 mi Calm Calm - N/A   Mostly Cloudy
6:52 PM 42.8 °F - 39.2 °F 87% 30.37 in 10.0 mi Calm Calm - N/A   Scattered Clouds
7:52 PM 39.2 °F - 37.4 °F 93% 30.39 in 10.0 mi Calm Calm - N/A   Clear
8:50 PM 37.4 °F - 37.4 °F 100% 30.39 in 10.0 mi Calm Calm - N/A   Clear
9:55 PM 34.3 °F - 34.3 °F 100% 30.39 in 5.0 mi Calm Calm - N/A   Clear
10:16 PM 34.2 °F 29.0 °F 34.2 °F 100% 30.39 in 5.0 mi ESE 5.8 mph - N/A   Clear
10:37 PM 34.5 °F - 34.5 °F 100% 30.38 in 5.0 mi Calm Calm - N/A   Clear
10:58 PM 34.5 °F - 34.5 °F 100% 30.39 in 5.0 mi Calm Calm - N/A   Clear
11:20 PM 35.2 °F - 35.2 °F 100% 30.39 in 5.0 mi Calm Calm - N/A   Clear
11:41 PM 35.1 °F - 35.1 °F 100% 30.39 in 5.0 mi Calm Calm - N/A   Clear